• In Portugal
  • List of Countries
  • For 7 days
  • Water Temperature
  • Satellite Maps
  • Weather Map
  • Weather Widgets
  • user-avatar
    Login

    Hourly Weather Manaus

    Today, 23 August, Wednesday

    Time Temperature Precipitation Wind Pressure Humidity
    00:00 +28°C° 0 mm 0 mps 754 mmHg 54%
    01:00 +27°C° 0 mm 0 mps 754 mmHg 56%
    02:00 +29°C° 0 mm 1 mps 754 mmHg 59%
    03:00 +28°C° 0 mm 1 mps 754 mmHg 62%
    04:00 +28°C° 0 mm 1 mps 754 mmHg 66%
    05:00 +27°C° 0 mm 1 mps 754 mmHg 70%
    06:00 +28°C° 0 mm 1 mps 754 mmHg 68%
    07:00 +30°C° 0 mm 1 mps 755 mmHg 65%
    08:00 +31°C° 0 mm 1 mps 755 mmHg 63%
    09:00 +34°C° 0 mm 1 mps 755 mmHg 54%
    10:00 +37°C° 0 mm 1 mps 755 mmHg 44%
    11:00 +38°C° 0 mm 0 mps 755 mmHg 34%
    12:00 +40°C° 0 mm 1 mps 754 mmHg 37%
    13:00 +39°C° 0 mm 1 mps 753 mmHg 39%
    14:00 +37°C° 0 mm 2 mps 752 mmHg 41%
    15:00 +36°C° 0 mm 1 mps 752 mmHg 42%
    16:00 +35°C° 0 mm 1 mps 752 mmHg 42%
    17:00 +35°C° 0 mm 1 mps 752 mmHg 43%
    18:00 +33°C° 0 mm 1 mps 752 mmHg 47%
    19:00 +32°C° 0 mm 1 mps 753 mmHg 51%
    20:00 +31°C° 0 mm 1 mps 753 mmHg 55%
    21:00 +30°C° 0 mm 1 mps 753 mmHg 58%
    22:00 +30°C° 0 mm 1 mps 754 mmHg 60%
    23:00 +29°C° 0 mm 1 mps 754 mmHg 62%

    Tomorrow, 24 August, Thursday

    Time Temperature Precipitation Wind Pressure Humidity
    00:00 +28°C° 0 mm 1 mps 754 mmHg 65%
    01:00 +28°C° 0 mm 1 mps 753 mmHg 68%
    02:00 +27°C° 0 mm 1 mps 753 mmHg 71%
    03:00 +27°C° 0 mm 1 mps 753 mmHg 72%
    04:00 +24°C° 0 mm 0 mps 753 mmHg 74%
    05:00 +24°C° 0 mm 0 mps 753 mmHg 75%
    06:00 +25°C° 0 mm 0 mps 754 mmHg 70%
    07:00 +27°C° 0 mm 0 mps 754 mmHg 65%
    08:00 +28°C° 0 mm 0 mps 755 mmHg 60%
    09:00 +32°C° 0 mm 1 mps 755 mmHg 53%
    10:00 +34°C° 0 mm 1 mps 755 mmHg 46%
    11:00 +37°C° 0 mm 2 mps 755 mmHg 38%
    12:00 +38°C° 0 mm 2 mps 754 mmHg 38%
    13:00 +38°C° 0 mm 2 mps 753 mmHg 38%
    14:00 +38°C° 0 mm 2 mps 752 mmHg 37%
    15:00 +36°C° 0 mm 1 mps 752 mmHg 40%
    16:00 +35°C° 0 mm 1 mps 752 mmHg 44%
    17:00 +34°C° 0 mm 1 mps 751 mmHg 47%
    18:00 +33°C° 0 mm 1 mps 752 mmHg 52%
    19:00 +29°C° 0 mm 0 mps 753 mmHg 56%
    20:00 +28°C° 0 mm 0 mps 753 mmHg 61%
    21:00 +27°C° 0.1 mm 0 mps 753 mmHg 65%
    22:00 +28°C° 0.1 mm 1 mps 754 mmHg 68%
    23:00 +28°C° 0.1 mm 1 mps 754 mmHg 72%

    Day after tomorrow, 25 August, Friday

    Time Temperature Precipitation Wind Pressure Humidity
    00:00 +27°C° 0.1 mm 1 mps 754 mmHg 74%
    01:00 +25°C° 0.1 mm 0 mps 753 mmHg 77%
    02:00 +24°C° 0.1 mm 0 mps 753 mmHg 80%
    03:00 +24°C° 0 mm 0 mps 753 mmHg 81%
    04:00 +24°C° 0 mm 0 mps 753 mmHg 82%
    05:00 +23°C° 0 mm 0 mps 753 mmHg 84%
    06:00 +25°C° 0 mm 0 mps 754 mmHg 77%
    07:00 +29°C° 0 mm 1 mps 754 mmHg 70%
    08:00 +30°C° 0 mm 1 mps 755 mmHg 63%
    09:00 +33°C° 0 mm 1 mps 755 mmHg 53%
    10:00 +36°C° 0 mm 2 mps 755 mmHg 43%
    11:00 +39°C° 0 mm 2 mps 755 mmHg 34%
    12:00 +40°C° 0 mm 2 mps 754 mmHg 30%
    13:00 +41°C° 0 mm 2 mps 752 mmHg 26%
    14:00 +41°C° 0 mm 2 mps 751 mmHg 23%
    15:00 +40°C° 0 mm 2 mps 751 mmHg 26%
    16:00 +39°C° 0 mm 2 mps 751 mmHg 29%
    17:00 +37°C° 0 mm 1 mps 751 mmHg 32%
    18:00 +35°C° 0 mm 1 mps 751 mmHg 36%
    19:00 +33°C° 0 mm 1 mps 752 mmHg 41%
    20:00 +32°C° 0 mm 1 mps 753 mmHg 45%
    21:00 +31°C° 0 mm 1 mps 753 mmHg 47%
    22:00 +31°C° 0 mm 1 mps 753 mmHg 49%
    23:00 +30°C° 0 mm 1 mps 753 mmHg 51%

    26 August, Saturday

    Time Temperature Precipitation Wind Pressure Humidity
    00:00 +30°C° 0 mm 1 mps 753 mmHg 52%
    01:00 +29°C° 0 mm 1 mps 752 mmHg 54%
    02:00 +29°C° 0 mm 1 mps 752 mmHg 55%
    03:00 +29°C° 0 mm 1 mps 752 mmHg 57%
    04:00 +28°C° 0 mm 1 mps 753 mmHg 60%
    05:00 +27°C° 0 mm 1 mps 753 mmHg 62%
    06:00 +29°C° 0 mm 1 mps 754 mmHg 59%
    07:00 +30°C° 0 mm 1 mps 754 mmHg 55%
    08:00 +31°C° 0 mm 1 mps 755 mmHg 52%
    09:00 +33°C° 0 mm 1 mps 755 mmHg 46%
    10:00 +37°C° 0 mm 2 mps 754 mmHg 40%
    11:00 +39°C° 0 mm 2 mps 754 mmHg 34%
    12:00 +39°C° 0 mm 2 mps 753 mmHg 32%
    13:00 +40°C° 0 mm 2 mps 752 mmHg 31%
    14:00 +40°C° 0 mm 1 mps 751 mmHg 29%
    15:00 +39°C° 0 mm 1 mps 751 mmHg 33%
    16:00 +36°C° 0 mm 1 mps 751 mmHg 37%
    17:00 +35°C° 0 mm 1 mps 751 mmHg 41%
    18:00 +34°C° 0 mm 1 mps 751 mmHg 42%
    19:00 +33°C° 0 mm 1 mps 752 mmHg 44%
    20:00 +32°C° 0 mm 1 mps 752 mmHg 46%
    21:00 +30°C° 0 mm 0 mps 753 mmHg 47%
    22:00 +29°C° 0 mm 0 mps 753 mmHg 49%
    23:00 +28°C° 0 mm 0 mps 753 mmHg 50%

    27 August, Sunday

    Time Temperature Precipitation Wind Pressure Humidity
    00:00 +28°C° 0.1 mm 0 mps 753 mmHg 53%
    01:00 +27°C° 0.1 mm 0 mps 752 mmHg 56%
    02:00 +27°C° 0.1 mm 0 mps 752 mmHg 59%
    03:00 +26°C° 0.5 mm 0 mps 752 mmHg 66%
    04:00 +24°C° 0.5 mm 0 mps 752 mmHg 74%
    05:00 +23°C° 0.5 mm 0 mps 753 mmHg 81%
    06:00 +27°C° 0 mm 1 mps 753 mmHg 76%
    07:00 +28°C° 0 mm 1 mps 754 mmHg 71%
    08:00 +30°C° 0 mm 1 mps 754 mmHg 66%
    09:00 +33°C° 0 mm 1 mps 754 mmHg 54%
    10:00 +36°C° 0 mm 1 mps 754 mmHg 43%
    11:00 +40°C° 0 mm 2 mps 754 mmHg 31%
    12:00 +40°C° 0 mm 2 mps 753 mmHg 31%
    13:00 +40°C° 0 mm 1 mps 752 mmHg 31%
    14:00 +40°C° 0 mm 1 mps 751 mmHg 31%
    15:00 +39°C° 0 mm 1 mps 751 mmHg 34%
    16:00 +37°C° 0 mm 1 mps 750 mmHg 36%
    17:00 +34°C° 0 mm 0 mps 750 mmHg 39%
    18:00 +33°C° 0 mm 0 mps 751 mmHg 41%
    19:00 +32°C° 0 mm 0 mps 751 mmHg 43%
    20:00 +31°C° 0 mm 0 mps 752 mmHg 45%
    21:00 +30°C° 0 mm 0 mps 752 mmHg 47%
    22:00 +29°C° 0 mm 0 mps 752 mmHg 49%
    23:00 +28°C° 0 mm 0 mps 752 mmHg 50%

    28 August, Monday

    Time Temperature Precipitation Wind Pressure Humidity
    00:00 +30°C° 0.2 mm 1 mps 752 mmHg 57%
    01:00 +29°C° 0.2 mm 1 mps 751 mmHg 64%
    02:00 +28°C° 0.2 mm 1 mps 751 mmHg 70%
    03:00 +27°C° 0.5 mm 1 mps 751 mmHg 75%
    04:00 +26°C° 0.5 mm 1 mps 752 mmHg 80%
    05:00 +26°C° 0.5 mm 1 mps 752 mmHg 85%
    06:00 +27°C° 0.2 mm 1 mps 753 mmHg 82%
    07:00 +28°C° 0.2 mm 1 mps 754 mmHg 78%
    08:00 +28°C° 0.2 mm 1 mps 754 mmHg 75%
    09:00 +32°C° 0 mm 1 mps 754 mmHg 62%
    10:00 +36°C° 0 mm 1 mps 754 mmHg 48%
    11:00 +40°C° 0 mm 1 mps 754 mmHg 35%
    12:00 +39°C° 0 mm 1 mps 753 mmHg 36%
    13:00 +39°C° 0 mm 1 mps 752 mmHg 37%
    14:00 +37°C° 0 mm 1 mps 751 mmHg 38%
    15:00 +36°C° 0 mm 1 mps 751 mmHg 40%
    16:00 +35°C° 0 mm 1 mps 751 mmHg 43%
    17:00 +35°C° 0 mm 1 mps 751 mmHg 46%
    18:00 +33°C° 0.1 mm 1 mps 751 mmHg 51%
    19:00 +32°C° 0.1 mm 1 mps 752 mmHg 56%
    20:00 +30°C° 0.1 mm 1 mps 752 mmHg 62%
    21:00 +30°C° 0.1 mm 1 mps 753 mmHg 65%
    22:00 +29°C° 0.1 mm 1 mps 753 mmHg 68%
    23:00 +28°C° 0.1 mm 1 mps 753 mmHg 71%
    Show more